Location: De Greiden
(52.9496°N, 5.9137°E)
Time: 00:40:28
(UTC+00:00)

Cosmos 2297 Rocket - Pass Details

Date: 24 January 2021
Orbit: 841 x 842 km, 71.0° (Epoch: 26 February)

Event Time Altitude Azimuth Distance (km) Brightness Sun altitude
Rises 19:15:12 0° 312° (NW) 3,407 6.1 -28.0°
Reaches altitude 10° 19:19:19 10° 340° (NNW) 2,471 4.9 -28.7°
Maximum altitude 19:21:43 13° 6° (N) 2,287 4.4 -29.0°
Enters shadow 19:21:52 13° 8° (N) 2,288 4.4 -29.0°
